Location: Unspecified
(33.4108°N, 0.0000°E)
Time: 12:49:31
(UTC+00:00)

USA 32 - Visible Passes

Search period start: 04 April 2026 00:00
Search period end: 14 April 2026 00:00
Orbit: 774 x 780 km, 85.0° (Epoch: 29 March)

Date Brightness Start Highest point End Pass type
(mag) Time Alt. Az. Time Alt. Az. Time Alt. Az.
4 Apr 6.9 22:12:34 11° N 22:12:34 11° N 22:12:49 10° N visible
5 Apr 6.5 21:38:31 14° N 21:38:31 14° N 21:39:11 10° N visible
6 Apr 6.3 21:04:27 14° NNE 21:04:27 14° NNE 21:05:10 10° NNE visible
7 Apr 6.3 20:30:20 11° NE 20:30:20 11° NE 20:30:38 10° NE visible
7 Apr 6.6 22:10:46 16° NNW 22:10:46 16° NNW 22:11:56 10° NNW visible
8 Apr 6.0 21:36:37 23° N 21:36:37 23° N 21:38:34 10° N visible
9 Apr 5.5 21:02:26 27° NNE 21:02:26 27° NNE 21:04:49 10° N visible
10 Apr 5.5 20:28:14 24° NE 20:28:14 24° NE 20:30:39 10° NNE visible
10 Apr 6.5 22:08:38 18° NW 22:08:38 18° NW 22:10:47 10° NNW visible
11 Apr 5.7 19:53:57 16° ENE 19:53:57 16° ENE 19:55:52 10° NE visible
11 Apr 5.5 21:34:22 33° NW 21:34:22 33° NW 21:37:48 10° NNW visible
12 Apr 4.4 21:00:02 59° NNW 21:00:02 59° NNW 21:04:17 10° N visible
13 Apr 4.1 20:25:38 53° ENE 20:25:38 53° ENE 20:30:24 10° NNE visible
13 Apr 6.6 22:06:02 14° W 22:06:30 14° WNW 22:09:06 10° NW visible
